FW2442 Weather Reports


time (UTC)temp
F
wind
direction
speed
knots
gust
knots
rain 1hr
in
rain 24hr
in
rain mn
in
humidity
%
barometer
mb
20260906144523 69 310 25.2 46.9 0.00 0.23 0.02 47 1019.4
20260906143519 71 304 25.2 40.0 0.00 0.23 0.02 46 1019.3
20260906142521 71 301 34.8 57.4 0.00 0.23 0.02 45 1019.1
20260906141520 71 314 34.8 53.0 0.00 0.23 0.02 45 1019.0
20260906140520 71 326 30.4 43.4 0.00 0.23 0.02 46 1018.9
20260906135521 70 307 31.3 50.4 0.00 0.23 0.02 48 1018.8
20260906134522 71 306 33.0 54.7 0.00 0.23 0.02 46 1018.7
20260906133519 72 294 37.4 52.1 0.00 0.23 0.02 47 1018.7
20260906132537 72 314 27.8 36.5 0.00 0.23 0.02 47 1018.7
20260906131520 71 295 40.0 57.4 0.00 0.23 0.02 44 1018.6
20260906130518 71 307 33.9 57.4 0.00 0.23 0.02 45 1018.4
20260906125536 71 287 34.8 59.1 0.00 0.23 0.02 49 1018.5
20260906124517 71 304 34.8 50.4 0.00 0.23 0.02 49 1018.4
20260906123519 71 311 25.2 50.4 0.00 0.23 0.02 51 1018.3
20260906122520 69 298 23.5 33.0 0.00 0.23 0.02 58 1018.4
20260906121519 69 275 24.3 40.0 0.00 0.23 0.02 59 1018.5
20260906120520 67 269 20.9 26.9 0.00 0.23 0.02 63 1018.7
20260906115520 66 272 15.6 20.0 0.00 0.23 0.02 67 1018.9
20260906114521 65 276 20.9 26.1 0.01 0.23 0.02 66 1019.0
20260906113521 65 278 14.8 26.9 0.01 0.23 0.02 71 1018.9
20260906112522 62 263 11.3 16.5 0.01 0.23 0.02 76 1019.1
20260906111521 61 262 13.0 16.5 0.01 0.23 0.02 77 1019.4
20260906110537 62 266 25.2 31.3 0.01 0.23 0.02 76 1019.6
20260906105520 62 276 32.2 41.7 0.01 0.23 0.02 69 1019.6
20260906104516 66 283 52.1 81.7 0.00 0.22 0.01 57 1019.3
20260906103521 67 299 36.5 60.8 0.00 0.22 0.01 57 1018.9
20260906102519 68 306 26.9 35.6 0.00 0.22 0.01 57 1018.8
20260906101520 68 302 33.0 68.6 0.00 0.22 0.01 58 1018.8
20260906100541 68 299 32.2 43.4 0.01 0.22 0.01 59 1018.7
20260906095521 68 319 29.5 40.0 0.01 0.22 0.01 61 1018.7
20260906094523 66 330 20.9 39.1 0.01 0.22 0.01 65 1018.8
20260906093520 64 307 10.4 20.9 0.01 0.22 0.01 74 1018.7
20260906092521 64 284 13.9 24.3 0.01 0.22 0.01 75 1018.9
20260906091519 65 311 24.3 36.5 0.01 0.22 0.01 66 1019.0
20260906090521 66 309 20.0 43.4 0.00 0.21 0.00 63 1018.8
20260906085541 66 295 27.8 40.8 0.00 0.21 0.00 65 1018.7
20260906084521 66 294 29.5 41.7 0.00 0.21 0.00 65 1018.8
20260906083540 67 289 32.2 52.1 0.00 0.21 0.00 63 1018.8
20260906082518 68 299 20.9 39.1 0.00 0.21 0.00 64 1018.7
20260906081517 68 287 26.9 45.2 0.00 0.21 0.00 69 1018.6
20260906080521 67 300 23.5 40.0 0.00 0.21 0.00 71 1018.7
20260906075519 66 296 17.4 31.3 0.00 0.21 0.00 73 1018.8
20260906074522 65 296 16.5 23.5 0.00 0.21 0.00 75 1018.7
20260906073521 64 285 22.6 29.5 0.00 0.21 0.00 75 1018.7
20260906072521 64 291 17.4 32.2 0.00 0.21 0.00 74 1018.7
20260906071541 63 252 6.1 11.3 0.00 0.21 0.00 83 1018.8
20260906070521 62 239 9.6 14.8 0.00 0.21 0.00 84 1018.8
20260906065521 61 212 12.2 19.1 0.00 0.21 0.00 85 1018.9
20260906064519 61 196 12.2 18.2 0.00 0.21 0.00 87 1018.8
20260906063540 61 239 9.6 16.5 0.00 0.21 0.00 86 1018.8
20260906062520 61 207 15.6 22.6 0.00 0.21 0.00 85 1018.6
20260906061520 61 225 8.7 11.3 0.00 0.21 0.00 84 1018.1
20260906060521 61 285 6.1 9.6 0.00 0.21 0.00 83 1017.9
20260906055521 60 356 7.8 13.9 0.00 0.21 0.00 85 1017.9
20260906054522 60 340 9.6 14.8 0.00 0.21 0.00 86 1018.0
20260906053520 60 334 11.3 23.5 0.00 0.21 0.00 86 1018.3
20260906052518 60 313 16.5 29.5 0.00 0.21 0.00 85 1018.5
20260906051518 60 300 12.2 22.6 0.00 0.21 0.00 86 1018.2
20260906050521 60 282 14.8 22.6 0.00 0.21 0.00 89 1018.2
20260906045539 59 276 8.7 12.2 0.00 0.21 0.00 91 1017.9
20260906044537 58 292 9.6 18.2 0.00 0.21 0.00 92 1018.0
20260906043521 58 299 13.9 20.0 0.00 0.21 0.00 91 1018.1
20260906042523 59 320 12.2 18.2 0.00 0.21 0.00 90 1018.0
20260906041521 59 299 9.6 18.2 0.00 0.21 0.00 90 1017.6
20260906040521 58 239 8.7 14.8 0.00 0.21 0.00 91 1017.1
20260906035518 58 240 8.7 11.3 0.00 0.21 0.00 91 1017.0
20260906034521 58 177 5.2 7.8 0.00 0.21 0.00 91 1016.8
20260906033539 58 173 7.0 10.4 0.00 0.21 0.00 90 1016.8
20260906032521 58 187 4.3 7.0 0.00 0.21 0.00 90 1016.6
20260906031519 58 205 2.6 4.3 0.00 0.21 0.00 90 1016.6
20260906030522 58 256 6.1 10.4 0.00 0.21 0.00 90 1016.6
20260906025520 59 301 3.5 6.1 0.00 0.21 0.00 90 1016.5
20260906024525 59 294 4.3 7.0 0.00 0.21 0.00 90 1016.5
20260906023519 59 288 3.5 6.1 0.00 0.21 0.00 91 1016.4
20260906022517 59 278 6.1 12.2 0.00 0.21 0.00 91 1016.4
20260906021519 59 278 7.0 9.6 0.00 0.21 0.00 91 1016.5
20260906020521 59 227 7.0 14.8 0.00 0.21 0.00 91 1016.5
20260906015521 59 268 7.0 11.3 0.00 0.21 0.00 91 1016.5
20260906014522 59 273 12.2 17.4 0.00 0.21 0.00 92 1016.6
20260906013519 59 272 11.3 14.8 0.00 0.21 0.00 93 1016.6
20260906012521 59 276 8.7 12.2 0.00 0.21 0.00 92 1016.6
20260906011520 59 270 7.0 11.3 0.00 0.21 0.00 92 1016.5
20260906010519 59 274 7.0 9.6 0.00 0.21 0.00 92 1016.6
20260906005519 60 264 6.1 9.6 0.00 0.21 0.00 92 1016.4
20260906004521 60 237 7.8 13.0 0.00 0.21 0.00 91 1016.6
20260906003520 60 242 7.0 9.6 0.00 0.21 0.00 91 1016.7
20260906002520 60 266 10.4 17.4 0.00 0.21 0.00 92 1016.8
20260906001540 60 294 8.7 12.2 0.00 0.21 0.00 92 1016.8
20260906000523 60 274 5.2 7.8 0.00 0.21 0.00 91 1016.8
20260905235521 61 282 4.3 7.8 0.00 0.21 0.00 91 1016.9
20260905234519 61 261 3.5 7.0 0.00 0.21 0.00 90 1016.8
20260905233519 61 195 5.2 8.7 0.00 0.21 0.00 90 1016.7
20260905232520 61 235 6.1 9.6 0.00 0.21 0.00 90 1017.0
20260905231519 61 213 6.1 12.2 0.00 0.21 0.00 89 1017.1
20260905230521 62 229 6.1 11.3 0.00 0.21 0.00 89 1017.0
20260905225519 62 257 6.1 9.6 0.00 0.21 0.00 89 1017.1
20260905224539 62 254 12.2 17.4 0.00 0.21 0.00 89 1017.1
20260905223521 62 268 12.2 16.5 0.00 0.21 0.00 90 1017.1
20260905222521 61 265 12.2 22.6 0.00 0.21 0.00 90 1017.1
20260905221519 61 256 16.5 22.6 0.00 0.21 0.00 90 1017.0
20260905220517 61 294 16.5 24.3 0.00 0.21 0.00 91 1017.0
20260905215540 61 279 10.4 14.8 0.00 0.21 0.00 92 1016.9
20260905214521 61 285 10.4 16.5 0.00 0.21 0.00 92 1016.8
20260905213519 61 276 12.2 15.6 0.00 0.21 0.00 91 1016.7
20260905212601 61 273 13.9 16.5 0.00 0.21 0.00 92 1016.6
20260905211559 61 276 13.9 18.2 0.00 0.21 0.00 92 1016.4
20260905210601 61 269 13.9 18.2 0.00 0.21 0.00 93 1016.5
20260905205519 61 293 12.2 16.5 0.00 0.21 0.21 93 1016.3
20260905204521 61 279 12.2 15.6 0.00 0.21 0.21 93 1016.3
20260905203521 61 283 11.3 13.9 0.00 0.21 0.21 93 1016.2
20260905202522 61 274 7.8 9.6 0.00 0.21 0.21 93 1016.1
20260905201520 61 279 7.8 9.6 0.00 0.21 0.21 93 1015.9
20260905200522 61 270 9.6 13.0 0.00 0.21 0.21 92 1015.9
20260905195519 62 276 5.2 7.8 0.00 0.21 0.21 92 1015.9
20260905194521 62 277 10.4 14.8 0.00 0.21 0.21 92 1015.9
20260905193519 61 305 7.8 11.3 0.00 0.21 0.21 92 1015.8
20260905192521 61 293 10.4 18.2 0.00 0.21 0.21 91 1015.9
20260905191519 61 315 11.3 18.2 0.00 0.21 0.21 92 1015.6
20260905190521 62 306 7.8 16.5 0.00 0.21 0.21 92 1015.6
20260905185519 62 285 12.2 20.9 0.00 0.21 0.21 92 1015.9
20260905183521 62 287 12.2 17.4 0.00 0.21 0.21 94 1015.7
20260905182519 62 291 8.7 13.0 0.00 0.21 0.21 94 1015.7
20260905181539 62 304 12.2 21.7 0.01 0.21 0.21 95 1015.6
20260905180519 62 320 11.3 15.6 0.05 0.21 0.21 95 1015.5
20260905175519 62 326 14.8 20.0 0.21 0.21 0.21 95 1015.3
20260905174521 62 340 13.0 20.0 0.21 0.21 0.21 94 1015.2
20260905173519 63 326 12.2 24.3 0.21 0.21 0.21 94 1015.1
20260905172521 63 336 18.2 29.5 0.21 0.21 0.21 92 1014.8
20260905171520 64 314 24.3 37.4 0.20 0.20 0.20 91 1014.4
20260905170522 65 306 35.6 61.7 0.16 0.16 0.16 85 1014.5
20260905165540 67 325 20.0 36.5 0.00 0.00 0.00 78 1015.2
20260905164519 69 324 27.8 41.7 0.00 0.00 0.00 69 1014.7
20260905163540 70 321 14.8 28.7 0.00 0.00 0.00 61 1014.1
20260905162522 71 342 14.8 26.1 0.00 0.00 0.00 60 1013.8
20260905161520 71 355 20.0 37.4 0.00 0.00 0.00 60 1013.5
20260905160520 71 340 20.0 40.0 0.00 0.00 0.00 59 1013.6
20260905155519 71 333 26.9 38.2 0.00 0.00 0.00 58 1013.3
20260905154541 72 340 28.7 40.8 0.00 0.00 0.00 57 1013.4
20260905153519 72 329 26.1 40.0 0.00 0.00 0.00 56 1013.4
20260905152540 73 320 33.0 46.9 0.00 0.00 0.00 55 1013.3
20260905151520 73 333 24.3 33.0 0.00 0.00 0.00 56 1013.0
20260905150522 73 327 25.2 45.2 0.00 0.00 0.00 55 1012.8
20260905145520 74 324 26.1 54.7 0.00 0.00 0.00 56 1012.6